Hourly Data Report for December 01, 2017

VICTORIA UNIVERSITY CS
BRITISH COLUMBIA

48°27'25.200" N
123°18'16.600" W
60.10 m
1018598
71783
WYJ

Download Data

Hourly Data (December 2017)
Hourly Data Report for December 1, 2017
TIME
LST
Temp Definition
°C
Dew Point Definition
°C
Rel Hum Definition
%
Precip. Amount Definition
mm

Wind Dir Definition
10's deg

Wind Spd Definition
km/h
Visibility Definition
km
Stn Press Definition
kPa
Hmdx Definition


Wind Chill Definition


Weather Definition


00:00 6.0 5.6 98 0.0 19 4   101.14     LegendNANA
01:00 6.6 6.0 96 0.0 18 4   101.10     LegendNANA
02:00 7.4 6.3 93 0.0 15 4   101.05     LegendNANA
03:00 7.0 5.8 92 0.0 15 5   100.99     LegendNANA
04:00 6.6 5.6 93 0.3 18 6   100.92     LegendNANA
05:00 6.3 5.0 91 0.3 17 5   100.91     LegendNANA
06:00 6.1 5.5 96 1.6 13 2   100.82     LegendNANA
07:00 6.4 5.5 94 0.8 20 8   100.81     LegendNANA
08:00 6.4 5.8 96 1.3 18 4   100.84     LegendNANA
09:00 6.4 5.9 97 0.9 15 4   100.79     LegendNANA
10:00 6.7 6.1 96 0.8 11 2   100.82     LegendNANA
11:00 6.5 5.9 96 1.8 15 2   100.77     LegendNANA
12:00 6.7 6.0 96 0.8 0 1   100.73     LegendNANA
13:00 7.1 6.5 96 0.6 9 1   100.62     LegendNANA
14:00 7.2 6.1 93 0.2 0 1   100.57     LegendNANA
15:00 7.3 6.6 96 0.3 11 1   100.51     LegendNANA
16:00 6.6 5.8 95 0.0 4 3   100.47     LegendNANA
17:00 6.4 5.9 97 0.3 27 4   100.49     LegendNANA
18:00 6.2 5.8 97 0.9 31 6   100.47     LegendNANA
19:00 5.1 4.6 97 0.0 21 2   100.50     LegendNANA
20:00 5.5 4.5 93 0.3 24 1   100.58     LegendNANA
21:00 6.2 5.1 92 0.5 19 6   100.60     LegendNANA
22:00 6.7 5.4 91 0.2 19 4   100.64     LegendNANA
23:00 6.3 5.1 92 0.0 18 3   100.65     LegendNANA

Notes on Data Quality.

Legend

  • E = Estimated
  • M = Missing
  • NA = Not Available*
  • [empty] = Indicates an unobserved value
Date modified: